This demonstration page uses our WeatherBlox Daily Observations layout. Learn more.

Left ArrowRight Arrow

40.97296, -117.73568

Hourly Observations for January 29, 2022

Temp ( °F °C ) Dew Point ( °F °C ) Humidity (%) Winds ( mph kmh ) Pressure ( in mb ) Visibility ( mi km ) Precip ( " mm )
12:56 am 00:56 Clear 18 -7.8 13 -10.6 81 81 ESE 3 6 30.40 1030 10 16 0.00 0.00
1:56 am 01:56 Clear 13 -10.6 9 -12.8 84 84 Calm 30.42 1030 10 16 0.00 0.00
2:56 am 02:56 Clear 15 -9.4 11 -11.7 84 84 SE 3 6 30.39 1029 10 16 0.00 0.00
3:56 am 03:56 Clear 11 -11.7 7 -13.9 84 84 Calm 30.39 1029 10 16 0.00 0.00
4:56 am 04:56 Clear 13 -10.6 9 -12.8 84 84 Calm 30.40 1029 10 16 0.00 0.00
5:56 am 05:56 Clear 13 -10.6 7 -13.9 77 77 Calm 30.41 1030 10 16 0.00 0.00
6:56 am 06:56 Clear 12 -11.1 8 -13.3 84 84 NNW 3 6 30.42 1030 10 16 0.00 0.00
7:56 am 07:56 Sunny 18 -7.8 12 -11.1 77 77 Calm 30.45 1031 10 16 0.00 0.00
8:56 am 08:56 Sunny 24 -4.4 15 -9.4 68 68 E 3 6 30.44 1031 10 16 0.00 0.00
9:56 am 09:56 Sunny 32 0 19 -7.2 59 59 Calm 30.42 1030 10 16 0.00 0.00
10:56 am 10:56 Sunny 40 4.4 15 -9.4 36 36 Calm 30.39 1029 10 16 0.00 0.00
11:56 am 11:56 Sunny 45 7.2 15 -9.4 30 30 NNE 3 6 30.35 1028 10 16 0.00 0.00
12:56 pm 12:56 Sunny 48 8.9 14 -10 25 25 Calm 30.31 1026 10 16 0.00 0.00
1:56 pm 13:56 Sunny 51 10.6 12 -11.1 21 21 NNW 6 9 30.29 1026 10 16 0.00 0.00
2:56 pm 14:56 Sunny 52 11.1 13 -10.6 21 21 N 5 7 30.27 1025 10 16 0.00 0.00
3:56 pm 15:56 Sunny 50 10 17 -8.3 27 27 NW 5 7 30.28 1025 10 16 0.00 0.00
4:56 pm 16:56 Sunny 43 6.1 14 -10 31 31 NNW 6 9 30.28 1025 10 16 0.00 0.00
5:56 pm 17:56 Clear 32 0 15 -9.4 50 50 Calm 30.31 1026 10 16 0.00 0.00
6:56 pm 18:56 Clear 25 -3.9 14 -10 63 63 NW 5 7 30.35 1028 10 16 0.00 0.00
7:56 pm 19:56 Clear 23 -5 14 -10 68 68 NW 3 6 30.35 1028 10 16 0.00 0.00
8:56 pm 20:56 Clear 20 -6.7 13 -10.6 74 74 S 5 7 30.35 1028 10 16 0.00 0.00
9:56 pm 21:56 Clear 19 -7.2 14 -10 81 81 SSE 6 9 30.34 1028 10 16 0.00 0.00
10:56 pm 22:56 Clear 20 -6.7 14 -10 78 78 SSE 8 13 30.32 1027 10 16 0.00 0.00
11:56 pm 23:56 Clear 22 -5.6 15 -9.4 75 75 E 3 6 30.29 1026 10 16 0.00 0.00

Powered by AerisWeather